Tracking 19192 objects as of 21-Jun-2018
HD Live streaming from Space Station
objects crossing your sky now

FENGYUN 1C DEB

Track FENGYUN 1C DEB now!
10-day predictions


NORAD ID: 33603
Int'l Code: 1999-025DCL
Perigee: 491.1 km
Apogee: 839.8 km
Inclination: 98.9 °
Period: 97.9 minutes
Semi major axis: 7036 km
RCS: 0.0056 m2 (small)
Launch date: May 10, 1999
Source: People's Republic of China (PRC)
Launch site: Taiyaun Space Center, China (TSC)

Note: This is SATELLITE DEBRIS
aabbcc
Your satellite tracking list
Your tracking list is empty




NASA's NSSDC Master Catalog

Two Line Element Set (TLE):
1 33603U 99025DCL 18169.28688431  .00000119  00000-0  20624-4 0  9994
2 33603  98.8723 186.8145 0247783 356.0897   3.8365 14.70876878585982
Source of the keplerian elements: AFSPC